Jonesville, VA

11:48 AM EST on February 25, 2017 (GMT -0500)
Jonesville

Weather History for K0VG - July, 2013

Change the Weather History Date:

Wednesday, July 17, 2013

  Actual Average (KLNP) Record (KLNP)
Temperature  
Mean Temperature 78 °F -  
Max Temperature 89 °F 78 °F 89 °F (2006)
Min Temperature 66 °F 60 °F 51 °F (2014)
Cooling Degree Days 12    
Growing Degree Days 28 (Base 50)    
Moisture  
Dew Point 69 °F    
Average Humidity 85    
Maximum Humidity 100    
Minimum Humidity 52    
Precipitation  
Precipitation 0.14 in - - ()
Sea Level Pressure  
Sea Level Pressure 30.33 in    
Wind  
Wind Speed 1 mph (NE)    
Max Wind Speed 10 mph    
Max Gust Speed 22 mph    
Visibility 9 miles    
Events Rain , Thunderstorm    
Averages and records for this station are not official NWS values.
T = Trace of Precipitation, MM = Missing Value Source: NWS Daily Summary

Daily Weather History Graph

Daily Weather History Graph

Search for Another Location

Airport or City:

Trip Planner

Search our weather history database for the weather conditions in past years. The results will help you decide how hot, cold, wet, or windy it might be!

Date:

Astronomy

Jul. 17, 2013 Rise Set
Actual Time 6:27 AM EDT 8:50 PM EDT
Civil Twilight 5:57 AM EDT 9:19 PM EDT
Nautical Twilight 5:21 AM EDT 9:56 PM EDT
Astronomical Twilight 4:41 AM EDT 10:36 PM EDT
Moon 3:40 PM EDT (7/17) 1:30 AM EDT (7/17)
Length of Visible Light 15h 21m
Length of Day
14h 22m
Waxing Gibbous, 67% of the Moon is Illuminated
Jul 17
Waxing Gibbous
Jul 22
Full
Jul 29
Last Quarter
Aug 6
New
Aug 14
First Quarter

Hourly Weather History & Observations

Time (EDT) Temp. Heat Index Dew Point Humidity Pressure Visibility Wind Dir Wind Speed Gust Speed Precip Events Conditions
12:15 AM 71.6 °F - 71.6 °F 100% 30.34 in 10.0 mi Calm Calm - N/A   Unknown
12:35 AM 71.6 °F - 71.6 °F 100% 30.35 in 10.0 mi Calm Calm - N/A   Unknown
12:55 AM 71.6 °F - 71.6 °F 100% 30.35 in 10.0 mi Calm Calm - N/A   Unknown
1:15 AM 71.6 °F - 69.8 °F 94% 30.35 in 10.0 mi Calm Calm - N/A   Unknown
1:35 AM 69.8 °F - 69.8 °F 100% 30.35 in 10.0 mi Calm Calm - N/A   Unknown
2:15 AM 69.8 °F - 69.8 °F 100% 30.35 in 10.0 mi Calm Calm - N/A   Unknown
2:35 AM 69.8 °F - 69.8 °F 100% 30.34 in 10.0 mi Calm Calm - N/A   Unknown
2:55 AM 68.0 °F - 68.0 °F 100% 30.34 in 10.0 mi Calm Calm - N/A   Unknown
3:15 AM 68.0 °F - 68.0 °F 100% 30.33 in 10.0 mi Calm Calm - N/A   Unknown
3:35 AM 68.0 °F - 68.0 °F 100% 30.34 in 9.0 mi Calm Calm - N/A   Unknown
3:55 AM 68.0 °F - 68.0 °F 100% 30.34 in 9.0 mi Calm Calm - N/A   Unknown
4:15 AM 68.0 °F - 68.0 °F 100% 30.34 in 10.0 mi Calm Calm - N/A   Unknown
4:35 AM 68.0 °F - 68.0 °F 100% 30.34 in 10.0 mi Calm Calm - N/A   Unknown
4:55 AM 66.2 °F - 66.2 °F 100% 30.34 in 8.0 mi Calm Calm - N/A   Unknown
5:15 AM 66.2 °F - 66.2 °F 100% 30.34 in 10.0 mi Calm Calm - N/A   Unknown
5:35 AM 66.2 °F - 66.2 °F 100% 30.35 in 10.0 mi Calm Calm - N/A   Unknown
5:55 AM 66.2 °F - 66.2 °F 100% 30.35 in 10.0 mi Calm Calm - N/A   Unknown
6:15 AM 66.2 °F - 66.2 °F 100% 30.36 in 10.0 mi Calm Calm - N/A   Unknown
6:35 AM 66.2 °F - 66.2 °F 100% 30.36 in 10.0 mi Calm Calm - N/A   Unknown
6:55 AM 66.2 °F - 66.2 °F 100% 30.37 in 9.0 mi Calm Calm - N/A   Unknown
7:15 AM 66.2 °F - 66.2 °F 100% 30.37 in 4.0 mi Calm Calm - N/A   Clear
7:35 AM 66.2 °F - 66.2 °F 100% 30.37 in 5.0 mi Calm Calm - N/A   Clear
7:55 AM 69.8 °F - 68.0 °F 94% 30.38 in 10.0 mi Calm Calm - N/A   Clear
8:15 AM 69.8 °F - 68.0 °F 94% 30.38 in 10.0 mi Calm Calm - N/A   Clear
8:35 AM 71.6 °F - 69.8 °F 94% 30.38 in 10.0 mi Calm Calm - N/A   Clear
8:55 AM 73.4 °F - 69.8 °F 88% 30.39 in 10.0 mi ENE 3.5 mph - N/A   Clear
9:15 AM 75.2 °F - 71.6 °F 89% 30.38 in 10.0 mi Calm Calm - N/A   Clear
9:35 AM 77.0 °F - 71.6 °F 83% 30.38 in 10.0 mi Calm Calm - N/A   Clear
9:55 AM 78.8 °F - 71.6 °F 78% 30.37 in 10.0 mi Calm Calm - N/A   Clear
10:15 AM 80.6 °F 84.6 °F 71.6 °F 74% 30.37 in 10.0 mi Calm Calm - N/A   Clear
10:35 AM 82.4 °F 87.2 °F 71.6 °F 70% 30.37 in 10.0 mi Calm Calm - N/A   Clear
10:55 AM 84.2 °F 89.6 °F 71.6 °F 66% 30.37 in 10.0 mi Calm Calm - N/A   Clear
11:15 AM 84.2 °F 89.6 °F 71.6 °F 66% 30.36 in 10.0 mi Calm Calm - N/A   Clear
11:35 AM 86.0 °F 91.8 °F 71.6 °F 62% 30.36 in 10.0 mi Calm Calm - N/A   Clear
11:55 AM 86.0 °F 91.8 °F 71.6 °F 62% 30.36 in 10.0 mi East 4.6 mph - N/A   Partly Cloudy
12:15 PM 86.0 °F 91.8 °F 71.6 °F 62% 30.35 in 10.0 mi East 5.8 mph - N/A   Clear
12:35 PM 86.0 °F 91.8 °F 71.6 °F 62% 30.35 in 10.0 mi East 3.5 mph - N/A   Clear
12:55 PM 87.8 °F 92.6 °F 69.8 °F 55% 30.35 in 10.0 mi NNE 3.5 mph - N/A   Clear
1:15 PM 89.6 °F 96.2 °F 71.6 °F 55% 30.34 in 10.0 mi Calm Calm - N/A   Partly Cloudy
1:35 PM 86.0 °F 91.8 °F 71.6 °F 62% 30.33 in 10.0 mi North 3.5 mph - N/A   Scattered Clouds
1:55 PM 86.0 °F 91.8 °F 71.6 °F 62% 30.32 in 10.0 mi Calm Calm - N/A   Mostly Cloudy
2:15 PM 89.6 °F 98.2 °F 73.4 °F 59% 30.31 in 10.0 mi North 8.1 mph - N/A   Partly Cloudy
2:35 PM 84.2 °F 90.9 °F 73.4 °F 70% 30.30 in 10.0 mi North 3.5 mph - N/A   Clear
2:55 PM 86.0 °F 91.8 °F 71.6 °F 62% 30.29 in 10.0 mi Calm Calm - N/A Thunderstorm Clear
3:15 PM 87.8 °F 93.8 °F 71.6 °F 58% 30.28 in 10.0 mi NNE 5.8 mph - N/A Thunderstorm Clear
3:35 PM 89.6 °F 96.2 °F 71.6 °F 55% 30.29 in 10.0 mi North 4.6 mph - N/A Thunderstorm Clear
3:55 PM 89.6 °F 96.2 °F 71.6 °F 55% 30.27 in 10.0 mi ENE 3.5 mph - N/A Thunderstorm Clear
4:15 PM 89.6 °F 94.7 °F 69.8 °F 52% 30.27 in 10.0 mi Calm Calm - N/A Thunderstorm Clear
4:35 PM 82.4 °F 87.2 °F 71.6 °F 70% 30.27 in 10.0 mi North 10.4 mph 21.9 mph N/A Thunderstorm Clear
4:55 PM 80.6 °F 83.9 °F 69.8 °F 70% 30.28 in 10.0 mi North 8.1 mph 16.1 mph N/A Thunderstorm Thunderstorm
5:15 PM 80.6 °F 82.7 °F 66.2 °F 61% 30.30 in 10.0 mi NW 8.1 mph - N/A Thunderstorm Scattered Clouds
5:35 PM 78.8 °F - 66.2 °F 65% 30.29 in 10.0 mi ESE 4.6 mph - N/A Thunderstorm Scattered Clouds
5:55 PM 75.2 °F - 69.8 °F 83% 30.29 in 7.0 mi NNE 3.5 mph - N/A Rain , Thunderstorm Light Thunderstorms and Rain
6:15 PM 73.4 °F - 69.8 °F 88% 30.29 in 10.0 mi SE 3.5 mph - N/A Thunderstorm Thunderstorm
6:35 PM 71.6 °F - 69.8 °F 94% 30.28 in 10.0 mi Calm Calm - N/A Rain , Thunderstorm Light Rain
6:55 PM 71.6 °F - 68.0 °F 88% 30.30 in 7.0 mi East 5.8 mph - N/A Rain , Thunderstorm Light Rain
7:15 PM 69.8 °F - 69.8 °F 100% 30.30 in 5.0 mi Calm Calm - 0.01 in Rain , Thunderstorm Light Rain
7:35 PM 69.8 °F - 68.0 °F 94% 30.28 in 10.0 mi NE 3.5 mph - 0.02 in Rain Light Rain
7:55 PM 68.0 °F - 68.0 °F 100% 30.28 in 10.0 mi ENE 3.5 mph - 0.02 in Rain Light Rain
8:15 PM 69.8 °F - 68.0 °F 94% 30.31 in 10.0 mi Calm Calm - N/A Thunderstorm Unknown
8:35 PM 69.8 °F - 68.0 °F 94% 30.31 in 10.0 mi Calm Calm - N/A Rain Light Rain
8:55 PM 69.8 °F - 68.0 °F 94% 30.33 in 8.0 mi Calm Calm - 0.02 in Rain Light Rain
9:15 PM 68.0 °F - 68.0 °F 100% 30.34 in 6.0 mi Calm Calm - 0.02 in Rain , Thunderstorm Light Rain
9:35 PM 68.0 °F - 68.0 °F 100% 30.33 in 7.0 mi Calm Calm - 0.10 in Rain Light Rain
9:55 PM 68.0 °F - 68.0 °F 100% 30.31 in 10.0 mi Calm Calm - 0.10 in   Unknown
10:15 PM 68.0 °F - 68.0 °F 100% 30.32 in 9.0 mi Calm Calm - N/A Thunderstorm Mostly Cloudy
10:35 PM 68.0 °F - 68.0 °F 100% 30.32 in 8.0 mi Calm Calm - N/A   Mostly Cloudy
10:55 PM 68.0 °F - 68.0 °F 100% 30.31 in 7.0 mi Calm Calm - N/A   Overcast
11:35 PM 68.0 °F - 68.0 °F 100% 30.32 in 8.0 mi Calm Calm - N/A   Unknown
11:55 PM 68.0 °F - 68.0 °F 100% 30.30 in 10.0 mi Calm Calm - N/A   Clear